Time,TemperatureF,DewpointF,PressureIn,WindDirection,WindDirectionDegrees,WindSpeedMPH,WindSpeedGustMPH,Humidity,HourlyPrecipIn,Conditions,Clouds,dailyrainin,SoftwareType,DateUTC
2013-11-28 00:01:00,40.8,38.7,29.63,WNW,283,16.0,27.0,74,0.00,,,0.81,meteohub,2013-11-28 05:01:00,
2013-11-28 00:02:00,40.8,38.7,29.63,NW,312,12.0,27.0,72,0.00,,,0.81,meteohub,2013-11-28 05:02:00,
2013-11-28 00:07:00,40.6,38.5,29.64,WNW,297,15.0,28.0,73,0.00,,,0.00,meteohub,2013-11-28 05:07:00,
2013-11-28 00:12:00,40.6,38.5,29.64,WNW,285,10.0,28.0,73,0.00,,,0.00,meteohub,2013-11-28 05:12:00,
2013-11-28 00:17:00,40.6,38.3,29.65,WSW,256,17.0,27.0,74,0.00,,,0.00,meteohub,2013-11-28 05:17:00,
2013-11-28 00:22:00,40.5,37.9,29.65,WNW,296,16.0,29.0,74,0.00,,,0.00,meteohub,2013-11-28 05:22:00,
2013-11-28 00:27:00,40.5,37.8,29.65,West,266,18.0,29.0,76,0.00,,,0.00,meteohub,2013-11-28 05:27:00,
2013-11-28 00:32:00,40.1,37.6,29.66,West,272,15.0,29.0,76,0.00,,,0.00,meteohub,2013-11-28 05:32:00,
2013-11-28 00:37:00,39.9,37.6,29.66,West,274,26.0,27.0,77,0.00,,,0.00,meteohub,2013-11-28 05:37:00,
2013-11-28 00:42:00,39.7,37.6,29.66,West,279,14.0,27.0,78,0.00,,,0.00,meteohub,2013-11-28 05:42:00,
2013-11-28 00:47:00,39.6,37.6,29.66,West,267,19.0,28.0,79,0.00,,,0.00,meteohub,2013-11-28 05:47:00,
2013-11-28 00:52:00,39.4,37.4,29.67,West,281,19.0,28.0,79,0.00,,,0.00,meteohub,2013-11-28 05:52:00,
2013-11-28 00:57:00,39.0,37.4,29.66,WNW,292,18.0,28.0,79,0.00,,,0.00,meteohub,2013-11-28 05:57:00,
2013-11-28 01:02:00,38.7,37.2,29.67,WSW,250,16.0,30.0,78,0.00,,,0.00,meteohub,2013-11-28 06:02:00,
2013-11-28 01:07:00,38.8,37.0,29.67,West,271,20.0,30.0,78,0.00,,,0.00,meteohub,2013-11-28 06:07:00,
2013-11-28 01:12:00,39.0,36.9,29.68,WNW,288,15.0,32.0,79,0.00,,,0.00,meteohub,2013-11-28 06:12:00,
2013-11-28 01:17:00,39.0,36.9,29.68,WNW,286,15.0,32.0,77,0.00,,,0.00,meteohub,2013-11-28 06:17:00,
2013-11-28 01:22:00,38.8,36.7,29.69,WNW,301,22.0,32.0,76,0.00,,,0.00,meteohub,2013-11-28 06:22:00,
2013-11-28 01:27:00,38.8,36.7,29.69,WNW,288,21.0,26.0,77,0.00,,,0.00,meteohub,2013-11-28 06:27:00,
2013-11-28 01:32:00,38.5,36.5,29.70,WNW,290,16.0,30.0,76,0.00,,,0.00,meteohub,2013-11-28 06:32:00,
2013-11-28 01:37:00,38.1,36.5,29.70,West,263,16.0,32.0,75,0.00,,,0.00,meteohub,2013-11-28 06:37:00,
2013-11-28 01:42:00,38.1,36.3,29.71,West,263,12.0,32.0,76,0.00,,,0.00,meteohub,2013-11-28 06:42:00,
2013-11-28 01:47:00,37.9,36.1,29.71,WNW,298,20.0,32.0,74,0.00,,,0.00,meteohub,2013-11-28 06:47:00,
2013-11-28 01:52:00,37.8,36.1,29.72,West,280,22.0,28.0,72,0.00,,,0.00,meteohub,2013-11-28 06:52:00,
2013-11-28 01:57:00,37.6,35.6,29.72,West,271,14.0,30.0,70,0.00,,,0.00,meteohub,2013-11-28 06:57:00,
2013-11-28 02:02:00,37.2,35.4,29.73,WSW,251,17.0,30.0,69,0.00,,,0.00,meteohub,2013-11-28 07:02:00,
2013-11-28 02:07:00,37.6,35.4,29.73,West,270,15.0,30.0,71,0.00,,,0.00,meteohub,2013-11-28 07:07:00,
2013-11-28 02:12:00,37.2,35.4,29.73,WNW,283,19.0,29.0,69,0.00,,,0.00,meteohub,2013-11-28 07:12:00,
2013-11-28 02:17:00,37.0,35.2,29.74,WNW,284,18.0,34.0,68,0.00,,,0.00,meteohub,2013-11-28 07:17:00,
2013-11-28 02:22:00,37.2,35.2,29.75,WNW,290,13.0,34.0,69,0.00,,,0.00,meteohub,2013-11-28 07:22:00,
2013-11-28 02:27:00,37.0,35.1,29.75,West,275,26.0,34.0,67,0.00,,,0.00,meteohub,2013-11-28 07:27:00,
2013-11-28 02:32:00,36.9,34.9,29.75,WNW,300,23.0,29.0,67,0.00,,,0.00,meteohub,2013-11-28 07:32:00,
2013-11-28 02:37:00,36.7,34.3,29.75,WNW,302,14.0,29.0,66,0.00,,,0.00,meteohub,2013-11-28 07:37:00,
2013-11-28 02:42:00,36.5,34.3,29.76,WNW,296,14.0,32.0,66,0.00,,,0.00,meteohub,2013-11-28 07:42:00,
2013-11-28 02:47:00,36.7,34.2,29.76,WNW,302,22.0,32.0,67,0.00,,,0.00,meteohub,2013-11-28 07:47:00,
2013-11-28 02:52:00,36.5,34.2,29.77,WNW,288,19.0,32.0,67,0.00,,,0.00,meteohub,2013-11-28 07:52:00,
2013-11-28 02:57:00,36.3,34.2,29.77,WNW,298,21.0,29.0,67,0.00,,,0.00,meteohub,2013-11-28 07:57:00,
2013-11-28 03:02:00,36.3,34.0,29.77,West,276,22.0,31.0,67,0.00,,,0.00,meteohub,2013-11-28 08:02:00,
2013-11-28 03:07:00,36.3,33.8,29.78,WNW,291,21.0,31.0,66,0.00,,,0.00,meteohub,2013-11-28 08:07:00,
2013-11-28 03:12:00,36.1,33.8,29.78,West,272,15.0,34.0,65,0.00,,,0.00,meteohub,2013-11-28 08:12:00,
2013-11-28 03:17:00,36.0,33.8,29.78,WNW,297,17.0,34.0,65,0.00,,,0.00,meteohub,2013-11-28 08:17:00,
2013-11-28 03:22:00,36.0,33.4,29.79,WNW,285,21.0,34.0,67,0.00,,,0.00,meteohub,2013-11-28 08:22:00,
2013-11-28 03:27:00,36.0,33.4,29.80,WNW,288,18.0,36.0,66,0.00,,,0.00,meteohub,2013-11-28 08:27:00,
2013-11-28 03:32:00,35.8,33.1,29.80,West,277,17.0,36.0,65,0.00,,,0.00,meteohub,2013-11-28 08:32:00,
2013-11-28 03:37:00,35.8,32.9,29.81,WNW,298,13.0,36.0,67,0.00,,,0.00,meteohub,2013-11-28 08:37:00,
2013-11-28 03:43:00,35.6,32.9,29.82,West,272,18.0,30.0,66,0.00,,,0.00,meteohub,2013-11-28 08:43:00,
2013-11-28 03:48:00,35.6,32.7,29.82,West,276,14.0,30.0,66,0.00,,,0.00,meteohub,2013-11-28 08:48:00,
2013-11-28 03:53:00,35.4,32.7,29.83,West,275,16.0,30.0,66,0.00,,,0.00,meteohub,2013-11-28 08:53:00,
2013-11-28 03:58:00,35.6,32.5,29.84,WNW,292,14.0,30.0,68,0.00,,,0.00,meteohub,2013-11-28 08:58:00,
2013-11-28 04:03:00,35.2,32.5,29.84,WNW,298,19.0,28.0,67,0.00,,,0.00,meteohub,2013-11-28 09:03:00,
2013-11-28 04:08:00,35.4,32.5,29.85,West,269,16.0,28.0,67,0.00,,,0.00,meteohub,2013-11-28 09:08:00,
2013-11-28 04:13:00,35.2,32.2,29.85,West,271,18.0,28.0,67,0.00,,,0.00,meteohub,2013-11-28 09:13:00,
2013-11-28 04:18:00,35.1,32.2,29.85,West,279,20.0,27.0,66,0.00,,,0.00,meteohub,2013-11-28 09:18:00,
2013-11-28 04:23:00,35.1,32.2,29.86,WNW,297,16.0,30.0,66,0.00,,,0.00,meteohub,2013-11-28 09:23:00,
2013-11-28 04:28:00,34.9,31.5,29.86,WNW,286,24.0,30.0,65,0.00,,,0.00,meteohub,2013-11-28 09:28:00,
2013-11-28 04:33:00,35.1,31.3,29.87,West,279,19.0,30.0,67,0.00,,,0.00,meteohub,2013-11-28 09:33:00,
2013-11-28 04:38:00,34.9,31.3,29.88,West,269,20.0,33.0,65,0.00,,,0.00,meteohub,2013-11-28 09:38:00,
2013-11-28 04:43:00,35.1,31.3,29.88,NW,308,13.0,33.0,67,0.00,,,0.00,meteohub,2013-11-28 09:43:00,
2013-11-28 04:48:00,34.9,31.3,29.88,WSW,246,18.0,33.0,66,0.00,,,0.00,meteohub,2013-11-28 09:48:00,
2013-11-28 04:53:00,34.9,31.3,29.88,WNW,286,20.0,29.0,64,0.00,,,0.00,meteohub,2013-11-28 09:53:00,
2013-11-28 04:58:00,34.7,30.9,29.89,West,272,19.0,29.0,67,0.00,,,0.00,meteohub,2013-11-28 09:58:00,
2013-11-28 05:03:00,34.5,30.9,29.89,WNW,295,21.0,29.0,66,0.00,,,0.00,meteohub,2013-11-28 10:03:00,
2013-11-28 05:08:00,34.7,30.9,29.90,WNW,283,17.0,29.0,67,0.00,,,0.00,meteohub,2013-11-28 10:08:00,
2013-11-28 05:13:00,34.5,30.7,29.91,WNW,284,23.0,29.0,67,0.00,,,0.00,meteohub,2013-11-28 10:13:00,
2013-11-28 05:18:00,34.2,30.7,29.91,WSW,256,20.0,29.0,64,0.00,,,0.00,meteohub,2013-11-28 10:18:00,
2013-11-28 05:23:00,34.2,30.6,29.92,WNW,284,21.0,31.0,64,0.00,,,0.00,meteohub,2013-11-28 10:23:00,
2013-11-28 05:28:00,34.2,30.4,29.92,WNW,288,15.0,34.0,66,0.00,,,0.00,meteohub,2013-11-28 10:28:00,
2013-11-28 05:33:00,34.0,30.4,29.93,West,271,14.0,34.0,66,0.00,,,0.00,meteohub,2013-11-28 10:33:00,
2013-11-28 05:38:00,33.6,30.4,29.93,West,277,23.0,34.0,65,0.00,,,0.00,meteohub,2013-11-28 10:38:00,
2013-11-28 05:43:00,33.3,30.0,29.94,West,267,9.0,30.0,63,0.00,,,0.00,meteohub,2013-11-28 10:43:00,
2013-11-28 05:48:00,33.3,30.0,29.94,WNW,286,17.0,30.0,64,0.00,,,0.00,meteohub,2013-11-28 10:48:00,
2013-11-28 05:53:00,33.1,30.0,29.96,West,269,18.0,31.0,65,0.00,,,0.00,meteohub,2013-11-28 10:53:00,
2013-11-28 05:58:00,32.7,29.5,29.96,West,281,18.0,31.0,64,0.00,,,0.00,meteohub,2013-11-28 10:58:00,
2013-11-28 06:03:00,32.7,29.5,29.97,WNW,289,12.0,31.0,65,0.00,,,0.00,meteohub,2013-11-28 11:03:00,
2013-11-28 06:08:00,32.7,29.3,29.97,WNW,283,22.0,32.0,64,0.00,,,0.00,meteohub,2013-11-28 11:08:00,
2013-11-28 06:13:00,32.5,29.3,29.97,West,267,19.0,32.0,64,0.00,,,0.00,meteohub,2013-11-28 11:13:00,
2013-11-28 06:18:00,32.4,29.1,29.97,WNW,292,22.0,34.0,63,0.00,,,0.00,meteohub,2013-11-28 11:18:00,
2013-11-28 06:23:00,32.4,29.1,29.99,NW,310,20.0,34.0,64,0.00,,,0.00,meteohub,2013-11-28 11:23:00,
2013-11-28 06:28:00,32.5,29.1,29.99,WNW,287,15.0,34.0,66,0.00,,,0.00,meteohub,2013-11-28 11:28:00,
2013-11-28 06:33:00,32.2,28.9,30.00,WNW,288,21.0,34.0,64,0.00,,,0.00,meteohub,2013-11-28 11:33:00,
2013-11-28 06:38:00,32.4,28.9,30.01,West,260,16.0,34.0,65,0.00,,,0.00,meteohub,2013-11-28 11:38:00,
2013-11-28 06:43:00,32.2,28.8,30.01,WNW,300,23.0,30.0,62,0.00,,,0.00,meteohub,2013-11-28 11:43:00,
2013-11-28 06:48:00,32.2,28.6,30.02,WNW,293,24.0,30.0,63,0.00,,,0.00,meteohub,2013-11-28 11:48:00,
2013-11-28 06:53:00,31.8,28.6,30.03,West,280,14.0,33.0,61,0.00,,,0.00,meteohub,2013-11-28 11:53:00,
2013-11-28 06:58:00,32.0,28.4,30.03,West,270,24.0,33.0,63,0.00,,,0.00,meteohub,2013-11-28 11:58:00,
2013-11-28 07:03:00,31.8,28.4,30.04,West,280,13.0,33.0,61,0.00,,,0.00,meteohub,2013-11-28 12:03:00,
2013-11-28 07:08:00,32.2,28.4,30.04,WNW,296,13.0,30.0,64,0.00,,,0.00,meteohub,2013-11-28 12:08:00,
2013-11-28 07:13:00,31.8,28.4,30.04,NW,322,24.0,30.0,62,0.00,,,0.00,meteohub,2013-11-28 12:13:00,
2013-11-28 07:19:00,32.2,28.2,30.05,WNW,292,20.0,30.0,64,0.00,,,0.00,meteohub,2013-11-28 12:19:00,
2013-11-28 07:24:00,32.0,28.2,30.06,WNW,292,14.0,30.0,62,0.00,,,0.00,meteohub,2013-11-28 12:24:00,
2013-11-28 07:29:00,32.0,28.2,30.06,WNW,288,19.0,36.0,63,0.00,,,0.00,meteohub,2013-11-28 12:29:00,
2013-11-28 07:34:00,31.8,27.7,30.06,WNW,292,18.0,36.0,63,0.00,,,0.00,meteohub,2013-11-28 12:34:00,
2013-11-28 07:39:00,31.6,27.7,30.06,NW,306,21.0,36.0,60,0.00,,,0.00,meteohub,2013-11-28 12:39:00,
2013-11-28 07:44:00,31.8,27.7,30.07,WNW,300,20.0,31.0,63,0.00,,,0.00,meteohub,2013-11-28 12:44:00,
2013-11-28 07:49:00,32.0,27.7,30.07,West,277,15.0,31.0,63,0.00,,,0.00,meteohub,2013-11-28 12:49:00,
2013-11-28 07:54:00,32.2,27.7,30.07,WNW,295,22.0,31.0,63,0.00,,,0.00,meteohub,2013-11-28 12:54:00,
2013-11-28 07:59:00,31.8,27.9,30.08,WNW,300,9.0,29.0,61,0.00,,,0.00,meteohub,2013-11-28 12:59:00,
2013-11-28 08:04:00,32.2,27.9,30.09,WNW,298,27.0,29.0,62,0.00,,,0.00,meteohub,2013-11-28 13:04:00,
2013-11-28 08:09:00,32.2,27.9,30.08,WNW,290,20.0,34.0,61,0.00,,,0.00,meteohub,2013-11-28 13:09:00,
2013-11-28 08:14:00,32.4,27.9,30.09,WNW,290,17.0,34.0,63,0.00,,,0.00,meteohub,2013-11-28 13:14:00,
2013-11-28 08:19:00,32.2,27.9,30.09,WNW,294,24.0,34.0,61,0.00,,,0.00,meteohub,2013-11-28 13:19:00,
2013-11-28 08:24:00,32.0,27.9,30.09,NW,308,25.0,38.0,59,0.00,,,0.00,meteohub,2013-11-28 13:24:00,
2013-11-28 08:29:00,32.4,28.0,30.09,WNW,289,22.0,38.0,62,0.00,,,0.00,meteohub,2013-11-28 13:29:00,
2013-11-28 08:34:00,32.4,28.0,30.10,WNW,293,27.0,38.0,60,0.00,,,0.00,meteohub,2013-11-28 13:34:00,
2013-11-28 08:39:00,32.4,28.0,30.11,WNW,298,25.0,33.0,60,0.00,,,0.00,meteohub,2013-11-28 13:39:00,
2013-11-28 08:44:00,32.4,28.2,30.11,NW,308,18.0,33.0,61,0.00,,,0.00,meteohub,2013-11-28 13:44:00,
2013-11-28 08:49:00,32.5,28.2,30.11,WNW,289,20.0,32.0,59,0.00,,,0.00,meteohub,2013-11-28 13:49:00,
2013-11-28 08:54:00,32.4,27.9,30.11,WNW,283,18.0,32.0,60,0.00,,,0.00,meteohub,2013-11-28 13:54:00,
2013-11-28 08:59:00,32.4,27.9,30.12,NW,315,17.0,34.0,58,0.00,,,0.00,meteohub,2013-11-28 13:59:00,
2013-11-28 09:04:00,32.4,27.9,30.12,NW,314,15.0,34.0,59,0.00,,,0.00,meteohub,2013-11-28 14:04:00,
2013-11-28 09:09:00,32.5,28.0,30.12,WNW,296,18.0,32.0,61,0.00,,,0.00,meteohub,2013-11-28 14:09:00,
2013-11-28 09:14:00,32.7,28.2,30.12,WNW,289,14.0,32.0,58,0.00,,,0.00,meteohub,2013-11-28 14:14:00,
2013-11-28 09:19:00,32.5,28.6,30.13,NW,315,18.0,31.0,58,0.00,,,0.00,meteohub,2013-11-28 14:19:00,
2013-11-28 09:24:00,32.5,28.6,30.13,WNW,286,22.0,29.0,58,0.00,,,0.00,meteohub,2013-11-28 14:24:00,
2013-11-28 09:29:00,32.5,28.4,30.14,WNW,290,18.0,31.0,59,0.00,,,0.00,meteohub,2013-11-28 14:29:00,
2013-11-28 09:34:00,32.5,28.4,30.15,West,281,13.0,32.0,58,0.00,,,0.00,meteohub,2013-11-28 14:34:00,
2013-11-28 09:39:00,32.7,28.4,30.16,WNW,289,15.0,32.0,58,0.00,,,0.00,meteohub,2013-11-28 14:39:00,
2013-11-28 09:44:00,32.5,28.4,30.16,West,281,13.0,28.0,56,0.00,,,0.00,meteohub,2013-11-28 14:44:00,
2013-11-28 09:49:00,33.3,28.9,30.16,WNW,286,9.0,30.0,59,0.00,,,0.00,meteohub,2013-11-28 14:49:00,
2013-11-28 09:54:00,33.1,28.9,30.16,WNW,294,18.0,30.0,57,0.00,,,0.00,meteohub,2013-11-28 14:54:00,
2013-11-28 09:59:00,33.1,28.9,30.16,WNW,293,11.0,28.0,57,0.00,,,0.00,meteohub,2013-11-28 14:59:00,
2013-11-28 10:04:00,33.1,28.9,30.17,WNW,292,12.0,28.0,55,0.00,,,0.00,meteohub,2013-11-28 15:04:00,
2013-11-28 10:09:00,33.4,28.9,30.17,NW,311,17.0,28.0,57,0.00,,,0.00,meteohub,2013-11-28 15:09:00,
2013-11-28 10:14:00,33.4,28.9,30.17,WNW,299,12.0,26.0,56,0.00,,,0.00,meteohub,2013-11-28 15:14:00,
2013-11-28 10:19:00,33.3,28.9,30.17,WNW,288,10.0,26.0,54,0.00,,,0.00,meteohub,2013-11-28 15:19:00,
2013-11-28 10:24:00,33.6,28.9,30.17,WNW,288,13.0,24.0,55,0.00,,,0.00,meteohub,2013-11-28 15:24:00,
2013-11-28 10:29:00,33.6,29.1,30.17,WNW,285,16.0,24.0,56,0.00,,,0.00,meteohub,2013-11-28 15:29:00,
2013-11-28 10:34:00,33.6,29.1,30.18,WNW,286,15.0,24.0,56,0.00,,,0.00,meteohub,2013-11-28 15:34:00,
2013-11-28 10:39:00,33.6,29.3,30.18,WNW,299,11.0,23.0,55,0.00,,,0.00,meteohub,2013-11-28 15:39:00,
2013-11-28 10:44:00,34.2,29.3,30.18,WNW,301,10.0,23.0,57,0.00,,,0.00,meteohub,2013-11-28 15:44:00,
2013-11-28 10:49:00,33.8,29.5,30.17,WNW,291,24.0,26.0,56,0.00,,,0.00,meteohub,2013-11-28 15:49:00,
2013-11-28 10:54:00,33.6,29.5,30.17,WNW,284,12.0,26.0,54,0.00,,,0.00,meteohub,2013-11-28 15:54:00,
2013-11-28 10:59:00,33.6,29.8,30.17,WNW,290,16.0,26.0,56,0.00,,,0.00,meteohub,2013-11-28 15:59:00,
2013-11-28 11:04:00,34.2,30.2,30.17,WNW,284,13.0,26.0,54,0.00,,,0.00,meteohub,2013-11-28 16:04:00,
2013-11-28 11:09:00,34.2,30.2,30.17,NW,309,13.0,26.0,54,0.00,,,0.00,meteohub,2013-11-28 16:09:00,
2013-11-28 11:14:00,34.0,30.4,30.17,WNW,300,16.0,27.0,54,0.00,,,0.00,meteohub,2013-11-28 16:14:00,
2013-11-28 11:19:00,34.0,30.6,30.17,WNW,292,20.0,28.0,54,0.00,,,0.00,meteohub,2013-11-28 16:19:00,
2013-11-28 11:24:00,34.0,30.7,30.17,NW,304,18.0,28.0,56,0.00,,,0.00,meteohub,2013-11-28 16:24:00,
2013-11-28 11:29:00,34.3,30.6,30.17,WNW,301,13.0,28.0,55,0.00,,,0.00,meteohub,2013-11-28 16:29:00,
2013-11-28 11:34:00,34.3,30.6,30.17,WNW,300,17.0,25.0,55,0.00,,,0.00,meteohub,2013-11-28 16:34:00,
2013-11-28 11:39:00,34.2,30.7,30.18,WNW,298,15.0,25.0,54,0.00,,,0.00,meteohub,2013-11-28 16:39:00,
2013-11-28 11:44:00,34.2,30.9,30.18,NW,315,17.0,24.0,54,0.00,,,0.00,meteohub,2013-11-28 16:44:00,
2013-11-28 11:49:00,34.2,30.9,30.17,WNW,290,17.0,24.0,54,0.00,,,0.00,meteohub,2013-11-28 16:49:00,
2013-11-28 11:54:00,34.2,31.1,30.17,WNW,291,12.0,24.0,52,0.00,,,0.00,meteohub,2013-11-28 16:54:00,
2013-11-28 11:59:00,34.0,31.1,30.17,WNW,295,16.0,24.0,52,0.00,,,0.00,meteohub,2013-11-28 16:59:00,
2013-11-28 12:04:00,34.3,31.5,30.18,West,279,11.0,24.0,53,0.00,,,0.00,meteohub,2013-11-28 17:04:00,
2013-11-28 12:09:00,34.2,31.5,30.17,WNW,296,15.0,24.0,53,0.00,,,0.00,meteohub,2013-11-28 17:09:00,
2013-11-28 12:14:00,34.3,31.8,30.18,WNW,298,13.0,23.0,52,0.00,,,0.00,meteohub,2013-11-28 17:14:00,
2013-11-28 12:19:00,34.3,31.8,30.18,WNW,291,18.0,23.0,51,0.00,,,0.00,meteohub,2013-11-28 17:19:00,
2013-11-28 12:24:00,34.9,31.8,30.17,WNW,298,6.0,23.0,54,0.00,,,0.00,meteohub,2013-11-28 17:24:00,
2013-11-28 12:29:00,34.5,32.0,30.18,WNW,298,16.0,25.0,50,0.00,,,0.00,meteohub,2013-11-28 17:29:00,
2013-11-28 12:34:00,34.5,32.2,30.18,West,277,16.0,25.0,52,0.00,,,0.00,meteohub,2013-11-28 17:34:00,
2013-11-28 12:39:00,34.9,32.2,30.19,NW,308,11.0,23.0,51,0.00,,,0.00,meteohub,2013-11-28 17:39:00,
2013-11-28 12:44:00,34.3,32.7,30.20,NW,305,12.0,23.0,52,0.00,,,0.00,meteohub,2013-11-28 17:44:00,
2013-11-28 12:49:00,34.5,32.9,30.21,WNW,295,12.0,22.0,51,0.00,,,0.00,meteohub,2013-11-28 17:49:00,
2013-11-28 12:54:00,34.5,32.9,30.21,WNW,302,12.0,22.0,50,0.00,,,0.00,meteohub,2013-11-28 17:54:00,
2013-11-28 12:59:00,35.1,32.9,30.21,NW,323,12.0,19.0,50,0.00,,,0.00,meteohub,2013-11-28 17:59:00,
2013-11-28 13:04:00,34.9,32.9,30.21,WNW,286,14.0,20.0,51,0.00,,,0.00,meteohub,2013-11-28 18:04:00,
2013-11-28 13:09:00,35.1,33.1,30.21,NW,305,15.0,20.0,50,0.00,,,0.00,meteohub,2013-11-28 18:09:00,
2013-11-28 13:14:00,35.1,33.1,30.21,West,275,15.0,20.0,50,0.00,,,0.00,meteohub,2013-11-28 18:14:00,
2013-11-28 13:19:00,35.6,33.3,30.21,NW,304,12.0,20.0,50,0.00,,,0.00,meteohub,2013-11-28 18:19:00,
2013-11-28 13:24:00,36.0,33.4,30.21,NW,314,14.0,20.0,52,0.00,,,0.00,meteohub,2013-11-28 18:24:00,
2013-11-28 13:29:00,35.8,33.6,30.22,NW,313,6.0,19.0,50,0.00,,,0.00,meteohub,2013-11-28 18:29:00,
2013-11-28 13:35:00,35.6,33.6,30.22,NW,313,9.0,20.0,51,0.00,,,0.00,meteohub,2013-11-28 18:35:00,
2013-11-28 13:40:00,35.6,33.8,30.22,NW,325,9.0,20.0,48,0.00,,,0.00,meteohub,2013-11-28 18:40:00,
2013-11-28 13:45:00,35.2,34.3,30.22,NNW,333,10.0,21.0,46,0.00,,,0.00,meteohub,2013-11-28 18:45:00,
2013-11-28 13:50:00,35.1,34.3,30.22,WNW,291,11.0,21.0,45,0.00,,,0.00,meteohub,2013-11-28 18:50:00,
2013-11-28 13:55:00,35.1,34.2,30.23,WNW,299,10.0,21.0,45,0.00,,,0.00,meteohub,2013-11-28 18:55:00,
2013-11-28 14:00:00,35.4,34.7,30.23,WNW,295,10.0,21.0,44,0.00,,,0.00,meteohub,2013-11-28 19:00:00,
2013-11-28 14:05:00,35.2,34.2,30.23,WNW,297,8.0,20.0,42,0.00,,,0.00,meteohub,2013-11-28 19:05:00,
2013-11-28 14:10:00,35.2,34.3,30.23,WNW,287,9.0,20.0,43,0.00,,,0.00,meteohub,2013-11-28 19:10:00,
2013-11-28 14:15:00,35.4,35.1,30.24,West,279,10.0,23.0,43,0.00,,,0.00,meteohub,2013-11-28 19:15:00,
2013-11-28 14:20:00,35.2,35.1,30.25,NW,323,8.0,23.0,43,0.00,,,0.00,meteohub,2013-11-28 19:20:00,
2013-11-28 14:25:00,35.1,35.2,30.25,WNW,293,8.0,23.0,44,0.00,,,0.00,meteohub,2013-11-28 19:25:00,
2013-11-28 14:30:00,35.1,35.2,30.26,NW,304,11.0,20.0,42,0.00,,,0.00,meteohub,2013-11-28 19:30:00,
2013-11-28 14:35:00,35.2,35.2,30.26,NW,304,7.0,17.0,43,0.00,,,0.00,meteohub,2013-11-28 19:35:00,
2013-11-28 14:40:00,35.1,35.4,30.26,WNW,299,10.0,19.0,41,0.00,,,0.00,meteohub,2013-11-28 19:40:00,
2013-11-28 14:45:00,35.1,35.6,30.26,WNW,292,6.0,19.0,42,0.00,,,0.00,meteohub,2013-11-28 19:45:00,
2013-11-28 14:50:00,34.9,35.6,30.26,WNW,299,12.0,19.0,42,0.00,,,0.00,meteohub,2013-11-28 19:50:00,
2013-11-28 14:55:00,35.1,35.8,30.26,NNW,332,6.0,19.0,44,0.00,,,0.00,meteohub,2013-11-28 19:55:00,
2013-11-28 15:00:00,34.9,36.0,30.27,NW,311,7.0,19.0,44,0.00,,,0.00,meteohub,2013-11-28 20:00:00,
2013-11-28 15:05:00,35.1,36.0,30.27,NW,318,14.0,18.0,46,0.00,,,0.00,meteohub,2013-11-28 20:05:00,
2013-11-28 15:10:00,34.9,36.0,30.28,North,352,9.0,18.0,44,0.00,,,0.00,meteohub,2013-11-28 20:10:00,
2013-11-28 15:15:00,34.7,36.0,30.28,NNW,340,10.0,19.0,44,0.00,,,0.00,meteohub,2013-11-28 20:15:00,
2013-11-28 15:20:00,34.5,36.1,30.28,NW,307,6.0,19.0,43,0.00,,,0.00,meteohub,2013-11-28 20:20:00,
2013-11-28 15:25:00,34.9,36.1,30.29,NNW,330,8.0,18.0,43,0.00,,,0.00,meteohub,2013-11-28 20:25:00,
2013-11-28 15:30:00,34.9,36.1,30.29,NNW,335,14.0,17.0,43,0.00,,,0.00,meteohub,2013-11-28 20:30:00,
2013-11-28 15:35:00,34.7,36.3,30.29,West,281,18.0,18.0,41,0.00,,,0.00,meteohub,2013-11-28 20:35:00,
2013-11-28 15:40:00,34.5,36.3,30.30,NW,311,9.0,17.0,42,0.00,,,0.00,meteohub,2013-11-28 20:40:00,
2013-11-28 15:45:00,34.5,36.3,30.30,WNW,288,10.0,21.0,43,0.00,,,0.00,meteohub,2013-11-28 20:45:00,
2013-11-28 15:50:00,34.3,36.3,30.30,WNW,292,7.0,21.0,41,0.00,,,0.00,meteohub,2013-11-28 20:50:00,
2013-11-28 15:55:00,34.2,36.3,30.31,NW,319,8.0,21.0,43,0.00,,,0.00,meteohub,2013-11-28 20:55:00,
2013-11-28 16:00:00,34.2,36.3,30.31,WNW,287,11.0,16.0,44,0.00,,,0.00,meteohub,2013-11-28 21:00:00,
2013-11-28 16:05:00,34.2,36.3,30.31,West,277,11.0,18.0,42,0.00,,,0.00,meteohub,2013-11-28 21:05:00,
2013-11-28 16:10:00,34.0,36.3,30.32,NW,313,4.0,18.0,42,0.00,,,0.00,meteohub,2013-11-28 21:10:00,
2013-11-28 16:15:00,34.0,36.3,30.32,NW,309,10.0,18.0,43,0.00,,,0.00,meteohub,2013-11-28 21:15:00,
2013-11-28 16:20:00,33.6,36.3,30.32,NW,320,10.0,17.0,44,0.00,,,0.00,meteohub,2013-11-28 21:20:00,
2013-11-28 16:25:00,33.6,36.1,30.33,WNW,289,12.0,17.0,44,0.00,,,0.00,meteohub,2013-11-28 21:25:00,
2013-11-28 16:30:00,33.6,36.1,30.33,NW,311,5.0,16.0,44,0.00,,,0.00,meteohub,2013-11-28 21:30:00,
2013-11-28 16:35:00,33.6,36.1,30.33,NW,306,5.0,16.0,44,0.00,,,0.00,meteohub,2013-11-28 21:35:00,
2013-11-28 16:40:00,33.4,36.0,30.34,WNW,300,7.0,15.0,45,0.00,,,0.00,meteohub,2013-11-28 21:40:00,
2013-11-28 16:45:00,33.4,36.0,30.34,WNW,302,10.0,15.0,46,0.00,,,0.00,meteohub,2013-11-28 21:45:00,
2013-11-28 16:50:00,33.6,36.0,30.34,NW,310,8.0,13.0,47,0.00,,,0.00,meteohub,2013-11-28 21:50:00,
2013-11-28 16:55:00,33.6,36.0,30.35,NW,312,4.0,13.0,45,0.00,,,0.00,meteohub,2013-11-28 21:55:00,
2013-11-28 17:00:00,33.4,36.0,30.35,WNW,286,10.0,16.0,45,0.00,,,0.00,meteohub,2013-11-28 22:00:00,
2013-11-28 17:05:00,33.4,35.8,30.36,NW,308,13.0,16.0,45,0.00,,,0.00,meteohub,2013-11-28 22:05:00,
2013-11-28 17:10:00,33.3,35.8,30.36,NNW,328,5.0,17.0,45,0.00,,,0.00,meteohub,2013-11-28 22:10:00,
2013-11-28 17:15:00,33.3,35.6,30.36,WNW,300,9.0,17.0,46,0.00,,,0.00,meteohub,2013-11-28 22:15:00,
2013-11-28 17:20:00,33.3,35.6,30.37,NNW,330,10.0,16.0,45,0.00,,,0.00,meteohub,2013-11-28 22:20:00,
2013-11-28 17:25:00,33.1,35.4,30.37,NNW,345,12.0,17.0,47,0.00,,,0.00,meteohub,2013-11-28 22:25:00,
2013-11-28 17:30:00,33.1,35.4,30.38,NW,317,10.0,17.0,45,0.00,,,0.00,meteohub,2013-11-28 22:30:00,
2013-11-28 17:35:00,33.1,34.9,30.38,NW,317,12.0,17.0,46,0.00,,,0.00,meteohub,2013-11-28 22:35:00,
2013-11-28 17:40:00,32.9,34.7,30.38,NW,324,8.0,15.0,47,0.00,,,0.00,meteohub,2013-11-28 22:40:00,
2013-11-28 17:45:00,32.9,34.7,30.39,NNW,340,13.0,16.0,48,0.00,,,0.00,meteohub,2013-11-28 22:45:00,
2013-11-28 17:50:00,32.7,34.7,30.39,NW,321,8.0,16.0,47,0.00,,,0.00,meteohub,2013-11-28 22:50:00,
2013-11-28 17:55:00,32.7,34.7,30.39,NNW,334,9.0,15.0,49,0.00,,,0.00,meteohub,2013-11-28 22:55:00,
2013-11-28 18:00:00,32.5,34.5,30.39,NNW,338,11.0,15.0,46,0.00,,,0.00,meteohub,2013-11-28 23:00:00,
2013-11-28 18:05:00,32.5,34.5,30.40,NNW,335,4.0,15.0,47,0.00,,,0.00,meteohub,2013-11-28 23:05:00,
2013-11-28 18:10:00,32.5,34.3,30.40,NW,304,11.0,16.0,47,0.00,,,0.00,meteohub,2013-11-28 23:10:00,
2013-11-28 18:15:00,32.4,34.3,30.40,NW,311,4.0,16.0,47,0.00,,,0.00,meteohub,2013-11-28 23:15:00,
2013-11-28 18:20:00,32.4,34.2,30.40,NNW,330,7.0,16.0,48,0.00,,,0.00,meteohub,2013-11-28 23:20:00,
2013-11-28 18:25:00,32.4,34.2,30.40,WNW,300,8.0,16.0,47,0.00,,,0.00,meteohub,2013-11-28 23:25:00,
2013-11-28 18:30:00,32.4,34.2,30.41,NNW,335,7.0,18.0,48,0.00,,,0.00,meteohub,2013-11-28 23:30:00,
2013-11-28 18:35:00,32.4,33.4,30.41,NW,305,6.0,18.0,47,0.00,,,0.00,meteohub,2013-11-28 23:35:00,
2013-11-28 18:40:00,32.2,33.4,30.41,NNW,336,7.0,15.0,48,0.00,,,0.00,meteohub,2013-11-28 23:40:00,
2013-11-28 18:45:00,32.2,33.4,30.42,NNW,347,12.0,15.0,49,0.00,,,0.00,meteohub,2013-11-28 23:45:00,
2013-11-28 18:50:00,32.2,33.4,30.42,NNW,328,7.0,15.0,49,0.00,,,0.00,meteohub,2013-11-28 23:50:00,
2013-11-28 18:56:00,32.2,33.3,30.42,NW,311,9.0,15.0,48,0.00,,,0.00,meteohub,2013-11-28 23:56:00,
2013-11-28 19:01:00,32.0,33.1,30.42,NW,308,10.0,18.0,49,0.00,,,0.00,meteohub,2013-11-29 00:01:00,
2013-11-28 19:06:00,31.8,33.1,30.43,NW,311,9.0,18.0,49,0.00,,,0.00,meteohub,2013-11-29 00:06:00,
2013-11-28 19:11:00,32.0,32.9,30.43,NW,305,12.0,15.0,48,0.00,,,0.00,meteohub,2013-11-29 00:11:00,
2013-11-28 19:16:00,31.8,32.7,30.43,NW,320,12.0,15.0,50,0.00,,,0.00,meteohub,2013-11-29 00:16:00,
2013-11-28 19:21:00,31.8,32.7,30.44,NNW,335,6.0,15.0,48,0.00,,,0.00,meteohub,2013-11-29 00:21:00,
2013-11-28 19:26:00,31.8,32.5,30.44,NNW,327,10.0,15.0,51,0.00,,,0.00,meteohub,2013-11-29 00:26:00,
2013-11-28 19:31:00,31.6,32.5,30.44,NW,325,4.0,13.0,50,0.00,,,0.00,meteohub,2013-11-29 00:31:00,
2013-11-28 19:36:00,31.6,32.0,30.44,NW,309,10.0,13.0,51,0.00,,,0.00,meteohub,2013-11-29 00:36:00,
2013-11-28 19:41:00,31.6,32.0,30.44,NNW,335,4.0,13.0,51,0.00,,,0.00,meteohub,2013-11-29 00:41:00,
2013-11-28 19:46:00,31.6,32.0,30.44,NW,317,8.0,13.0,52,0.00,,,0.00,meteohub,2013-11-29 00:46:00,
2013-11-28 19:51:00,31.5,31.8,30.44,NW,323,4.0,13.0,52,0.00,,,0.00,meteohub,2013-11-29 00:51:00,
2013-11-28 19:56:00,31.6,31.8,30.44,NW,323,6.0,15.0,53,0.00,,,0.00,meteohub,2013-11-29 00:56:00,
2013-11-28 20:01:00,31.5,31.6,30.44,NW,315,7.0,15.0,53,0.00,,,0.00,meteohub,2013-11-29 01:01:00,
2013-11-28 20:06:00,31.5,31.5,30.45,North,352,7.0,13.0,52,0.00,,,0.00,meteohub,2013-11-29 01:06:00,
2013-11-28 20:11:00,31.3,31.5,30.45,NNW,327,4.0,14.0,52,0.00,,,0.00,meteohub,2013-11-29 01:11:00,
2013-11-28 20:16:00,31.3,31.3,30.45,NW,323,8.0,14.0,52,0.00,,,0.00,meteohub,2013-11-29 01:16:00,
2013-11-28 20:21:00,31.1,31.3,30.45,WNW,290,2.0,14.0,53,0.00,,,0.00,meteohub,2013-11-29 01:21:00,
2013-11-28 20:26:00,31.3,31.3,30.46,NW,308,8.0,13.0,53,0.00,,,0.00,meteohub,2013-11-29 01:26:00,
2013-11-28 20:31:00,31.3,31.1,30.46,NNW,328,11.0,14.0,51,0.00,,,0.00,meteohub,2013-11-29 01:31:00,
2013-11-28 20:36:00,31.1,31.1,30.46,NW,305,14.0,14.0,51,0.00,,,0.00,meteohub,2013-11-29 01:36:00,
2013-11-28 20:41:00,31.1,30.9,30.47,NW,313,13.0,17.0,51,0.00,,,0.00,meteohub,2013-11-29 01:41:00,
2013-11-28 20:46:00,31.1,30.9,30.47,NW,311,11.0,17.0,53,0.00,,,0.00,meteohub,2013-11-29 01:46:00,
2013-11-28 20:51:00,31.1,30.9,30.47,NW,315,12.0,17.0,53,0.00,,,0.00,meteohub,2013-11-29 01:51:00,
2013-11-28 20:56:00,31.1,30.6,30.46,WNW,297,9.0,16.0,52,0.00,,,0.00,meteohub,2013-11-29 01:56:00,
2013-11-28 21:01:00,30.9,30.6,30.47,NNW,328,13.0,17.0,52,0.00,,,0.00,meteohub,2013-11-29 02:01:00,
2013-11-28 21:06:00,30.9,30.6,30.47,NNW,330,7.0,17.0,52,0.00,,,0.00,meteohub,2013-11-29 02:06:00,
2013-11-28 21:11:00,30.9,30.4,30.47,NNW,327,6.0,17.0,53,0.00,,,0.00,meteohub,2013-11-29 02:11:00,
2013-11-28 21:16:00,30.9,30.4,30.47,NNW,334,8.0,17.0,53,0.00,,,0.00,meteohub,2013-11-29 02:16:00,
2013-11-28 21:21:00,30.9,30.2,30.47,NW,313,9.0,13.0,52,0.00,,,0.00,meteohub,2013-11-29 02:21:00,
2013-11-28 21:26:00,30.9,30.0,30.47,NNW,333,10.0,13.0,52,0.00,,,0.00,meteohub,2013-11-29 02:26:00,
2013-11-28 21:31:00,30.9,30.0,30.47,North,359,4.0,13.0,53,0.00,,,0.00,meteohub,2013-11-29 02:31:00,
2013-11-28 21:36:00,30.7,30.0,30.48,North,354,11.0,13.0,54,0.00,,,0.00,meteohub,2013-11-29 02:36:00,
2013-11-28 21:41:00,30.9,30.0,30.48,North,351,10.0,14.0,55,0.00,,,0.00,meteohub,2013-11-29 02:41:00,
2013-11-28 21:46:00,30.7,29.8,30.47,NW,311,7.0,14.0,55,0.00,,,0.00,meteohub,2013-11-29 02:46:00,
2013-11-28 21:51:00,30.7,29.8,30.47,NW,323,11.0,14.0,54,0.00,,,0.00,meteohub,2013-11-29 02:51:00,
2013-11-28 21:56:00,30.7,29.8,30.47,NNW,340,11.0,17.0,54,0.00,,,0.00,meteohub,2013-11-29 02:56:00,
2013-11-28 22:01:00,30.7,29.8,30.48,NNW,339,11.0,17.0,54,0.00,,,0.00,meteohub,2013-11-29 03:01:00,
2013-11-28 22:06:00,30.7,29.7,30.48,NNW,344,5.0,15.0,54,0.00,,,0.00,meteohub,2013-11-29 03:06:00,
2013-11-28 22:11:00,30.7,29.5,30.48,NNW,339,9.0,14.0,55,0.00,,,0.00,meteohub,2013-11-29 03:11:00,
2013-11-28 22:16:00,30.6,29.5,30.48,NW,308,4.0,14.0,55,0.00,,,0.00,meteohub,2013-11-29 03:16:00,
2013-11-28 22:21:00,30.6,29.3,30.48,NW,326,9.0,13.0,55,0.00,,,0.00,meteohub,2013-11-29 03:21:00,
2013-11-28 22:26:00,30.6,29.3,30.48,NW,320,8.0,15.0,54,0.00,,,0.00,meteohub,2013-11-29 03:26:00,
2013-11-28 22:31:00,30.7,29.3,30.48,NNW,344,8.0,15.0,55,0.00,,,0.00,meteohub,2013-11-29 03:31:00,
2013-11-28 22:36:00,30.7,29.3,30.48,North,359,5.0,14.0,55,0.00,,,0.00,meteohub,2013-11-29 03:36:00,
2013-11-28 22:42:00,30.6,28.9,30.48,NNW,347,0.0,12.0,54,0.00,,,0.00,meteohub,2013-11-29 03:42:00,
2013-11-28 22:47:00,30.6,28.9,30.48,NNW,338,6.0,12.0,56,0.00,,,0.00,meteohub,2013-11-29 03:47:00,
2013-11-28 22:52:00,30.7,28.9,30.48,NNW,334,4.0,12.0,55,0.00,,,0.00,meteohub,2013-11-29 03:52:00,
2013-11-28 22:57:00,30.7,28.9,30.49,NNW,329,4.0,12.0,55,0.00,,,0.00,meteohub,2013-11-29 03:57:00,
2013-11-28 23:01:00,30.7,28.8,30.49,NW,310,5.0,12.0,53,0.00,,,0.00,meteohub,2013-11-29 04:01:00,
2013-11-28 23:07:00,30.7,28.6,30.49,NNW,328,9.0,12.0,54,0.00,,,0.00,meteohub,2013-11-29 04:07:00,
2013-11-28 23:12:00,30.9,28.6,30.49,NW,304,4.0,11.0,53,0.00,,,0.00,meteohub,2013-11-29 04:12:00,
2013-11-28 23:17:00,30.9,28.4,30.49,WNW,296,3.0,10.0,52,0.00,,,0.00,meteohub,2013-11-29 04:17:00,
2013-11-28 23:22:00,30.9,28.4,30.50,NW,323,8.0,10.0,52,0.00,,,0.00,meteohub,2013-11-29 04:22:00,
2013-11-28 23:27:00,31.1,28.4,30.50,NW,313,7.0,10.0,52,0.00,,,0.00,meteohub,2013-11-29 04:27:00,
2013-11-28 23:32:00,31.3,28.4,30.49,NW,311,4.0,10.0,53,0.00,,,0.00,meteohub,2013-11-29 04:32:00,
2013-11-28 23:37:00,31.3,28.0,30.49,NNW,332,6.0,12.0,52,0.00,,,0.00,meteohub,2013-11-29 04:37:00,
2013-11-28 23:42:00,31.3,28.0,30.50,NW,310,3.0,12.0,54,0.00,,,0.00,meteohub,2013-11-29 04:42:00,
2013-11-28 23:47:00,31.3,28.0,30.50,NNW,336,3.0,11.0,53,0.00,,,0.00,meteohub,2013-11-29 04:47:00,
2013-11-28 23:52:00,31.3,28.0,30.49,NW,307,4.0,11.0,54,0.00,,,0.00,meteohub,2013-11-29 04:52:00,
2013-11-28 23:57:00,31.3,27.9,30.49,NW,320,7.0,11.0,52,0.00,,,0.00,meteohub,2013-11-29 04:57:00,